TimeCDT,TemperatureF,Dew PointF,Humidity,Sea Level PressureIn,VisibilityMPH,Wind Direction,Wind SpeedMPH,Gust SpeedMPH,PrecipitationIn,Events,Conditions,WindDirDegrees,DateUTC
12:15 AM,64.4,60.8,88,30.03,10.0,South,5.8,-,N/A,,Clear,170,2013-05-20 05:15:00
12:35 AM,64.4,60.8,88,30.03,10.0,South,4.6,-,N/A,,Clear,170,2013-05-20 05:35:00
12:55 AM,62.6,60.8,94,30.03,10.0,SSE,4.6,-,N/A,,Clear,150,2013-05-20 05:55:00
1:15 AM,62.6,60.8,94,30.03,10.0,SSE,4.6,-,N/A,,Clear,150,2013-05-20 06:15:00
1:35 AM,62.6,59.0,88,30.02,10.0,SE,5.8,-,N/A,,Clear,140,2013-05-20 06:35:00
1:55 AM,62.6,59.0,88,30.02,10.0,SSE,3.5,-,N/A,,Clear,150,2013-05-20 06:55:00
2:15 AM,62.6,59.0,88,30.02,10.0,SE,4.6,-,N/A,,Clear,140,2013-05-20 07:15:00
2:35 AM,62.6,57.2,82,30.02,10.0,SE,4.6,-,N/A,,Clear,140,2013-05-20 07:35:00
2:55 AM,60.8,57.2,88,30.02,10.0,SSE,5.8,-,N/A,,Clear,150,2013-05-20 07:55:00
3:15 AM,62.6,57.2,82,30.02,10.0,SSE,4.6,-,N/A,,Clear,150,2013-05-20 08:15:00
3:35 AM,62.6,57.2,82,30.02,10.0,SSE,5.8,-,N/A,,Clear,160,2013-05-20 08:35:00
3:55 AM,62.6,57.2,82,30.02,10.0,SE,6.9,-,N/A,,Clear,140,2013-05-20 08:55:00
4:35 AM,62.6,57.2,82,30.03,10.0,SSE,5.8,-,N/A,,Clear,150,2013-05-20 09:35:00
4:55 AM,62.6,57.2,82,30.03,10.0,SSE,5.8,-,N/A,,Clear,150,2013-05-20 09:55:00
5:15 AM,62.6,57.2,82,30.04,10.0,SSE,3.5,-,N/A,,Clear,150,2013-05-20 10:15:00
5:35 AM,60.8,57.2,88,30.05,10.0,SE,3.5,-,N/A,,Partly Cloudy,140,2013-05-20 10:35:00
5:55 AM,60.8,57.2,88,30.06,10.0,Calm,Calm,-,N/A,,Partly Cloudy,0,2013-05-20 10:55:00
6:15 AM,60.8,57.2,88,30.07,10.0,Calm,Calm,-,N/A,,Mostly Cloudy,0,2013-05-20 11:15:00
6:35 AM,62.6,59.0,88,30.08,10.0,Calm,Calm,-,N/A,,Overcast,0,2013-05-20 11:35:00
6:55 AM,62.6,59.0,88,30.09,10.0,Calm,Calm,-,N/A,,Overcast,0,2013-05-20 11:55:00
7:15 AM,64.4,59.0,83,30.10,10.0,SE,4.6,-,N/A,,Overcast,130,2013-05-20 12:15:00
7:35 AM,64.4,60.8,88,30.10,10.0,SE,4.6,-,N/A,,Overcast,130,2013-05-20 12:35:00
7:55 AM,66.2,60.8,83,30.10,10.0,SSE,4.6,-,N/A,,Overcast,150,2013-05-20 12:55:00
8:15 AM,68.0,62.6,83,30.09,10.0,South,8.1,-,N/A,,Mostly Cloudy,170,2013-05-20 13:15:00
8:35 AM,69.8,64.4,83,30.09,10.0,South,6.9,-,N/A,,Mostly Cloudy,180,2013-05-20 13:35:00
9:15 AM,73.4,66.2,78,30.09,10.0,SSW,10.4,-,N/A,,Mostly Cloudy,200,2013-05-20 14:15:00
9:35 AM,73.4,66.2,78,30.09,10.0,South,8.1,-,N/A,,Mostly Cloudy,180,2013-05-20 14:35:00
9:55 AM,73.4,66.2,78,30.09,10.0,SSW,8.1,-,N/A,,Mostly Cloudy,200,2013-05-20 14:55:00
10:35 AM,75.2,66.2,73,30.09,10.0,South,8.1,-,N/A,,Mostly Cloudy,180,2013-05-20 15:35:00
10:55 AM,75.2,66.2,73,30.10,10.0,South,8.1,-,N/A,,Overcast,180,2013-05-20 15:55:00
11:15 AM,73.4,66.2,78,30.11,10.0,SW,8.1,-,N/A,,Overcast,220,2013-05-20 16:15:00
11:35 AM,75.2,66.2,73,30.11,10.0,SSW,6.9,-,N/A,,Overcast,210,2013-05-20 16:35:00
11:55 AM,75.2,66.2,73,30.10,10.0,SSW,6.9,-,N/A,,Overcast,200,2013-05-20 16:55:00
12:15 PM,75.2,66.2,73,30.10,10.0,SSW,9.2,-,N/A,,Overcast,210,2013-05-20 17:15:00
12:35 PM,75.2,66.2,73,30.10,10.0,SSW,9.2,-,N/A,,Overcast,200,2013-05-20 17:35:00
12:55 PM,75.2,66.2,73,30.09,10.0,SSW,9.2,-,N/A,,Overcast,200,2013-05-20 17:55:00
1:15 PM,73.4,66.2,78,30.09,10.0,South,6.9,-,N/A,,Overcast,170,2013-05-20 18:15:00
1:55 PM,75.2,64.4,69,30.09,10.0,SSW,4.6,-,N/A,,Overcast,200,2013-05-20 18:55:00
2:15 PM,75.2,64.4,69,30.09,10.0,South,4.6,-,N/A,,Overcast,170,2013-05-20 19:15:00
2:35 PM,77.0,64.4,65,30.08,10.0,SSW,5.8,-,N/A,,Overcast,210,2013-05-20 19:35:00
2:55 PM,78.8,64.4,61,30.07,10.0,South,5.8,-,N/A,,Overcast,190,2013-05-20 19:55:00
3:15 PM,78.8,66.2,65,30.06,10.0,South,5.8,-,N/A,,Scattered Clouds,180,2013-05-20 20:15:00
3:35 PM,78.8,66.2,65,30.05,10.0,SSW,8.1,-,N/A,,Clear,210,2013-05-20 20:35:00
3:55 PM,80.6,64.4,58,30.04,10.0,South,5.8,-,N/A,,Clear,170,2013-05-20 20:55:00
4:15 PM,80.6,64.4,58,30.04,10.0,SSE,9.2,-,N/A,,Clear,150,2013-05-20 21:15:00
4:35 PM,80.6,64.4,58,30.03,10.0,South,9.2,-,N/A,,Clear,170,2013-05-20 21:35:00
4:55 PM,80.6,64.4,58,30.03,10.0,SSE,11.5,-,N/A,,Clear,150,2013-05-20 21:55:00
5:15 PM,80.6,64.4,58,30.03,10.0,SSE,5.8,-,N/A,,Clear,160,2013-05-20 22:15:00
5:35 PM,80.6,64.4,58,30.02,10.0,SSE,3.5,-,N/A,,Clear,160,2013-05-20 22:35:00
5:55 PM,80.6,64.4,58,30.02,10.0,South,5.8,-,N/A,,Clear,170,2013-05-20 22:55:00
6:15 PM,78.8,64.4,61,30.02,10.0,South,4.6,-,N/A,,Clear,180,2013-05-20 23:15:00
6:35 PM,78.8,64.4,61,30.01,10.0,South,6.9,-,N/A,,Clear,170,2013-05-20 23:35:00
6:55 PM,78.8,64.4,61,30.01,10.0,South,5.8,-,N/A,,Clear,170,2013-05-20 23:55:00
7:15 PM,77.0,64.4,65,30.01,10.0,SSE,4.6,-,N/A,,Clear,160,2013-05-21 00:15:00
7:35 PM,77.0,64.4,65,30.01,10.0,SSE,4.6,-,N/A,,Clear,150,2013-05-21 00:35:00
7:55 PM,75.2,64.4,69,30.01,10.0,SSE,4.6,-,N/A,,Clear,160,2013-05-21 00:55:00
8:15 PM,75.2,64.4,69,30.01,10.0,SSE,4.6,-,N/A,,Clear,150,2013-05-21 01:15:00
8:35 PM,73.4,64.4,73,30.00,10.0,SSE,8.1,-,N/A,,Clear,150,2013-05-21 01:35:00
9:15 PM,71.6,64.4,78,30.01,10.0,SE,3.5,-,N/A,,Clear,140,2013-05-21 02:15:00
9:35 PM,71.6,64.4,78,30.01,10.0,SE,3.5,-,N/A,,Clear,140,2013-05-21 02:35:00
9:55 PM,71.6,64.4,78,30.02,10.0,SE,3.5,-,N/A,,Clear,140,2013-05-21 02:55:00
10:15 PM,69.8,64.4,83,30.02,10.0,Calm,Calm,-,N/A,,Clear,0,2013-05-21 03:15:00
10:35 PM,69.8,62.6,78,30.03,10.0,SE,3.5,-,N/A,,Clear,140,2013-05-21 03:35:00
10:55 PM,68.0,64.4,88,30.03,10.0,Calm,Calm,-,N/A,,Clear,0,2013-05-21 03:55:00
11:15 PM,69.8,64.4,83,30.03,10.0,SE,3.5,-,N/A,,Clear,140,2013-05-21 04:15:00
11:35 PM,69.8,64.4,83,30.02,10.0,Calm,Calm,-,N/A,,Clear,0,2013-05-21 04:35:00
11:55 PM,69.8,64.4,83,30.02,10.0,SE,3.5,-,N/A,,Clear,140,2013-05-21 04:55:00